[[{"header":{"parameterUnit":"m.s-1","parameterCategory":1,"la1":30.2991,"la2":30.254,"lo1":-89.0895,"lo2":-89.0444,"dy":0.0017,"dx":0.0017,"nx":28,"ny":28,"refTime":"2023-04-22T21:00:00:Z","depth":0,"parameterNumber":2,"parameterNumberName":"U-component_of_WINDS"},"data":[0,0,0,0,0,0,0,0,0,0,0,0,0,0,0,0,0,0,0,0,0,0,0,0,0,0,0,0,0,0,0,0,0,0,0,0,0,0,0,0,0,0,0,0,0,0,0,0,0,0,0,0,0,0,0,0,0,0,-2.6469,-2.6469,0,-2.6519,-2.652,-2.652,-2.6449,-2.6446,-2.6443,-2.6441,-2.6496,-2.65,-2.6504,0,0,0,0,0,0,0,0,0,0,0,0,0,-2.6313,-2.6316,-2.6469,-2.6469,-2.647,-2.6519,-2.652,-2.652,-2.6449,-2.6446,-2.6443,-2.644,-2.6495,-2.65,-2.6504,0,0,0,0,0,0,0,0,0,0,0,0,0,-2.6374,-2.6317,-2.6468,-2.644,-2.6438,-2.6519,-2.652,-2.6521,-2.645,-2.6446,-2.6442,-2.6438,-2.6494,-2.6499,-2.6505,-2.6617,0,0,-2.6523,-2.6525,0,0,0,0,0,0,0,0,-2.637,-2.6379,-2.6444,-2.6442,-2.644,-2.6473,-2.6485,-2.6553,-2.6451,-2.6445,-2.6441,-2.6437,-2.6492,-2.6498,-2.6516,-2.662,-2.6622,-2.6523,-2.6527,-2.6529,-2.6531,0,0,0,0,0,0,0,-2.6366,-2.6377,-2.6489,-2.6445,-2.6442,-2.6426,-2.643,-2.6498,-2.649,-2.6446,-2.644,-2.6447,-2.649,-2.651,-2.6517,-2.6623,-2.6523,-2.6528,-2.6532,-2.6534,-2.6822,-2.6826,0,0,0,0,0,0,-2.6365,-2.6374,-2.6487,-2.649,-2.6395,-2.6431,-2.6436,-2.6467,-2.6489,-2.6488,-2.645,-2.6444,-2.6502,-2.651,-2.6518,-2.6652,-2.6529,-2.6534,-2.6538,-2.6817,-2.6823,-2.6827,0,0,0,0,0,0,-2.6362,-2.6376,-2.6485,-2.6431,-2.6443,-2.6438,-2.6473,-2.647,-2.649,-2.6492,-2.6491,-2.6472,-2.65,-2.651,-2.6593,-2.6653,-2.6537,-2.6542,-2.6813,-2.6819,-2.6825,-2.692,0,0,0,0,0,0,-2.6358,-2.6375,-2.6417,-2.6432,-2.6446,-2.6559,-2.6476,-2.6473,-2.6499,-2.6491,-2.6512,-2.6512,-2.6497,-2.6585,-2.6599,-2.6659,-2.6547,-2.6807,-2.6815,-2.6823,-2.6911,-2.6928,-2.6943,0,0,0,0,0,-2.6352,-2.6443,-2.642,-2.6434,-2.6499,-2.6562,-2.657,-2.655,-2.6504,-2.6547,-2.6549,-2.6512,-2.6643,-2.6594,-2.6609,-2.6672,-2.6803,-2.6813,-2.6822,-2.6904,-2.6925,-2.6943,0,0,0,0,0,0,-2.6437,-2.6444,-2.6419,-2.6516,-2.6539,-2.655,-2.6603,-2.6573,-2.661,-2.6601,-2.6576,-2.6581,-2.667,-2.6678,-2.6623,-2.6781,-2.6716,-2.6729,-2.6773,-2.6793,-2.6809,-2.6806,-2.6552,0,0,0,0,0,-2.6466,-2.6516,-2.652,-2.6606,-2.6618,-2.6609,-2.6636,-2.6618,-2.6641,-2.6651,-2.6658,-2.6683,-2.6729,-2.6761,-2.6804,-2.6911,-2.6915,-2.6961,-2.6977,-2.699,-2.7003,-2.7061,-2.7082,-2.6858,-2.6858,-2.6858,0,0,-2.6529,-2.6539,-2.6572,-2.6623,-2.6638,-2.6692,-2.6618,-2.6677,-2.6716,-2.666,-2.6739,-2.6745,-2.6771,-2.6866,-2.6909,-2.6876,-2.7065,-2.7002,-2.7013,-2.7018,-2.7073,-2.7094,-2.7113,-2.6864,-2.6863,-2.6862,0,0,-2.667,-2.6682,-2.6755,-2.6771,-2.6795,-2.6788,-2.6806,-2.6821,-2.6822,-2.69,-2.6859,-2.6906,-2.6987,-2.7007,-2.7028,-2.7175,-2.7143,-2.719,-2.7274,-2.7331,-2.7349,-2.7364,-2.7418,-2.7438,-2.7201,-2.7202,-2.7202,0,-2.6745,-2.6823,-2.6797,-2.6859,-2.6883,-2.6832,-2.6906,-2.6924,-2.6961,-2.6979,-2.6942,-2.7042,-2.7056,-2.7155,-2.7191,-2.7209,-2.7229,-2.7189,-2.7348,-2.7363,-2.7377,-2.7429,-2.7449,-2.7207,-2.7207,-2.7206,-2.7205,0,-2.6915,-2.6969,-2.7025,-2.7061,-2.7091,-2.7159,-2.7144,-2.7178,-2.7157,-2.7154,-2.7234,-2.7248,-2.7294,-2.7315,-2.7296,-2.7413,-2.7392,-2.7352,-2.7286,-2.7405,-2.7453,-2.7472,-2.7215,-2.7213,-2.7212,-2.721,0,0,-2.7113,-2.7132,-2.7154,-2.717,-2.7191,-2.7233,-2.7298,-2.7341,-2.7372,-2.7398,-2.7454,-2.7522,-2.7485,-2.7508,-2.7491,-2.754,-2.7658,-2.7493,-2.7494,-2.7525,-2.7789,-2.7821,-2.7844,-2.7635,-2.7638,-2.7641,-2.7787,0,-2.7256,-2.7368,-2.7346,-2.7457,-2.7507,-2.7459,-2.7516,-2.7536,-2.7534,-2.7578,-2.7576,-2.7626,-2.7571,-2.7585,-2.7632,-2.7634,-2.7711,-2.7622,-2.7688,-2.7691,-2.7686,-2.7869,-2.7903,-2.804,-2.7805,-2.7809,-2.7811,0,-2.7438,-2.747,-2.7586,-2.7599,-2.7619,-2.7671,-2.7709,-2.775,-2.7771,-2.7767,-2.7792,-2.7765,-2.7831,-2.7762,-2.7853,-2.7794,-2.7819,-2.7824,-2.7828,-2.7836,-2.776,-2.7884,-2.8083,-2.8105,-2.784,-2.7837,-2.7835,0,-2.7574,-2.7646,-2.7724,-2.7739,-2.7756,-2.7794,-2.7802,-2.782,-2.7847,-2.788,-2.7897,-2.7938,-2.7961,-2.7993,-2.7977,-2.7928,-2.8072,-2.8002,-2.8072,-2.8073,-2.8107,-2.8106,-2.8316,-2.8119,-2.8119,-2.8119,-2.8118,0,-2.7737,-2.781,-2.7786,-2.7834,-2.7915,-2.7888,-2.7969,-2.7972,-2.7988,-2.8037,-2.7996,-2.8044,-2.8019,-2.8065,-2.8053,-2.8131,-2.8141,-2.8141,-2.8137,-2.8146,-2.8146,-2.8164,-2.8155,-2.8124,-2.8123,-2.8122,-2.8121,0,-2.7903,-2.789,-2.7973,-2.7981,-2.7984,-2.8044,-2.8051,-2.8097,-2.8091,-2.8154,-2.8167,-2.8159,-2.8211,-2.8197,-2.8254,-2.8245,-2.8345,-2.8328,-2.8338,-2.8335,-2.8407,-2.8401,-2.8638,-2.8669,-2.845,-2.8452,-2.8454,0,-2.801,-2.8065,-2.8078,-2.8108,-2.8119,-2.8167,-2.8194,-2.817,-2.82,-2.8228,-2.8271,-2.8318,-2.8355,-2.8439,-2.8439,-2.8482,-2.8467,-2.8547,-2.8474,-2.8481,-2.8471,-2.8469,-2.8476,-2.8563,-2.8566,-2.8568,-2.8569,0,-2.8201,-2.8191,-2.8231,-2.8269,-2.8302,-2.8331,-2.8356,-2.8382,-2.8359,-2.8395,-2.8447,-2.8475,-2.8532,-2.858,-2.8619,-2.8629,-2.8597,-2.8592,-2.8611,-2.8622,-2.8626,-2.8627,-2.8381,-2.8588,-2.8586,-2.8584,-2.8583,-2.8583,-2.8342,-2.8389,-2.8406,-2.8452,-2.8467,-2.8492,-2.8535,-2.8534,-2.8576,-2.862,-2.8602,-2.8662,-2.8681,-2.873,-2.8745,-2.8791,-2.8761,-2.8788,-2.8796,-2.8803,-2.8813,-2.8616,-2.8798,-2.8797,-2.8797,-2.8797,-2.8796,0,-2.8533,-2.854,-2.8583,-2.8619,-2.8655,-2.8618,-2.8644,-2.8677,-2.873,-2.875,-2.8786,-2.8846,-2.8892,-2.8894,-2.8938,-2.8975,-2.8961,-2.8988,-2.8986,-2.8989,-2.8837,-2.8817,-2.8998,-2.8998,-2.8998,-2.8998,-2.8998,-2.8998,-2.8636,-2.8714,-2.8706,-2.8791,-2.8798,-2.8855,-2.8873,-2.8896,-2.8912,-2.8979,-2.9017,-2.9017,-2.9031,-2.9075,-2.9116,-2.9115,-2.9134,-2.9167,-2.9162,-2.902,-2.9,-2.8981,-2.8962,-2.9171,-2.9171,-2.931,-2.9312,-2.9313]},{"header":{"parameterUnit":"m.s-1","parameterCategory":1,"la1":30.2991,"la2":30.254,"lo1":-89.0895,"lo2":-89.0444,"dy":0.0017,"dx":0.0017,"nx":28,"ny":28,"refTime":"2023-04-22T21:00:00:Z","depth":0,"parameterNumber":3,"parameterNumberName":"V-component_of_WINDS"},"data":[0,0,0,0,0,0,0,0,0,0,0,0,0,0,0,0,0,0,0,0,0,0,0,0,0,0,0,0,0,0,0,0,0,0,0,0,0,0,0,0,0,0,0,0,0,0,0,0,0,0,0,0,0,0,0,0,0,0,-4.623,-4.623,0,-4.6188,-4.6187,-4.6187,-4.6124,-4.6123,-4.6122,-4.6121,-4.6077,-4.6077,-4.6077,0,0,0,0,0,0,0,0,0,0,0,0,0,-4.6257,-4.6257,-4.623,-4.623,-4.6229,-4.6188,-4.6187,-4.6187,-4.6125,-4.6123,-4.6122,-4.6121,-4.6077,-4.6077,-4.6077,0,0,0,0,0,0,0,0,0,0,0,0,0,-4.6233,-4.6257,-4.623,-4.6193,-4.6189,-4.6188,-4.6187,-4.6186,-4.6125,-4.6123,-4.6122,-4.612,-4.6077,-4.6077,-4.6077,-4.6108,0,0,-4.6076,-4.6076,0,0,0,0,0,0,0,0,-4.6235,-4.6232,-4.6199,-4.6196,-4.6191,-4.616,-4.6181,-4.616,-4.6125,-4.6149,-4.6121,-4.6119,-4.6106,-4.6103,-4.6099,-4.6106,-4.6104,-4.6076,-4.6076,-4.6076,-4.6076,0,0,0,0,0,0,0,-4.6236,-4.6234,-4.6213,-4.6199,-4.6194,-4.6179,-4.6173,-4.6176,-4.6137,-4.6147,-4.6142,-4.6138,-4.6104,-4.6099,-4.6097,-4.6104,-4.6076,-4.6076,-4.6076,-4.6076,-4.6134,-4.6135,0,0,0,0,0,0,-4.6244,-4.6235,-4.6215,-4.6212,-4.6209,-4.6179,-4.6174,-4.6172,-4.6137,-4.613,-4.614,-4.6136,-4.6101,-4.6098,-4.6096,-4.6129,-4.6076,-4.6076,-4.6076,-4.6132,-4.6134,-4.6136,0,0,0,0,0,0,-4.6244,-4.6242,-4.6216,-4.6222,-4.6218,-4.6181,-4.6179,-4.6172,-4.6167,-4.6132,-4.6124,-4.6143,-4.6099,-4.6096,-4.6105,-4.6127,-4.6076,-4.6076,-4.613,-4.6133,-4.6135,-4.6197,0,0,0,0,0,0,-4.6245,-4.6243,-4.6254,-4.6223,-4.6218,-4.6227,-4.618,-4.6172,-4.6167,-4.6161,-4.6132,-4.6126,-4.6098,-4.6106,-4.6105,-4.6125,-4.6075,-4.6128,-4.6131,-4.6134,-4.6193,-4.6201,-4.6208,0,0,0,0,0,-4.6247,-4.6274,-4.6255,-4.6253,-4.6232,-4.6228,-4.6225,-4.6192,-4.6169,-4.618,-4.6157,-4.6127,-4.6125,-4.6108,-4.6106,-4.6127,-4.6126,-4.613,-4.6134,-4.6189,-4.6199,-4.6208,0,0,0,0,0,0,-4.6308,-4.6269,-4.6248,-4.6266,-4.6251,-4.6218,-4.6231,-4.6204,-4.6196,-4.6191,-4.615,-4.6144,-4.6158,-4.6143,-4.6125,-4.6155,-4.6121,-4.6125,-4.6163,-4.6173,-4.6181,-4.6183,-4.6075,0,0,0,0,0,-4.6324,-4.6325,-4.629,-4.6309,-4.6303,-4.6269,-4.6266,-4.6242,-4.6225,-4.6218,-4.6196,-4.618,-4.6176,-4.6174,-4.6168,-4.6191,-4.6183,-4.6204,-4.6212,-4.6218,-4.6222,-4.6231,-4.624,-4.6148,-4.6148,-4.6148,0,0,-4.6356,-4.6335,-4.6338,-4.6321,-4.6307,-4.6308,-4.6264,-4.6267,-4.6268,-4.6218,-4.6225,-4.6209,-4.6189,-4.6205,-4.6211,-4.6193,-4.6246,-4.6223,-4.6229,-4.6228,-4.6236,-4.6245,-4.6253,-4.6151,-4.615,-4.615,0,0,-4.6415,-4.64,-4.6414,-4.64,-4.6379,-4.6356,-4.636,-4.633,-4.6317,-4.6324,-4.6287,-4.6287,-4.6281,-4.6268,-4.626,-4.6315,-4.6287,-4.6315,-4.6355,-4.6365,-4.6372,-4.6379,-4.6397,-4.6404,-4.6318,-4.6319,-4.6319,0,-4.6458,-4.6459,-4.6424,-4.643,-4.6423,-4.6379,-4.6393,-4.6381,-4.636,-4.6356,-4.6337,-4.6327,-4.6311,-4.6323,-4.6336,-4.6332,-4.6334,-4.6317,-4.6374,-4.638,-4.6385,-4.6402,-4.641,-4.6322,-4.6322,-4.6321,-4.6321,0,-4.6512,-4.6513,-4.6527,-4.6507,-4.6502,-4.6512,-4.6478,-4.6477,-4.6454,-4.6433,-4.644,-4.6419,-4.6408,-4.6409,-4.6386,-4.6418,-4.6407,-4.6382,-4.6347,-4.6398,-4.6413,-4.642,-4.6327,-4.6326,-4.6325,-4.6324,0,0,-4.6607,-4.6568,-4.6574,-4.6564,-4.6538,-4.6538,-4.6546,-4.6535,-4.6534,-4.6521,-4.6526,-4.6522,-4.6498,-4.649,-4.6465,-4.6475,-4.6518,-4.6448,-4.6447,-4.646,-4.655,-4.6568,-4.6576,-4.65,-4.6501,-4.6502,-4.6551,0,-4.666,-4.6671,-4.664,-4.6658,-4.6658,-4.6617,-4.6624,-4.6608,-4.6589,-4.6586,-4.6565,-4.6562,-4.6532,-4.6527,-4.6534,-4.6511,-4.6535,-4.6507,-4.6502,-4.6503,-4.6507,-4.6584,-4.6603,-4.6651,-4.6557,-4.6558,-4.6559,0,-4.6723,-4.6713,-4.6731,-4.6704,-4.6703,-4.6709,-4.6696,-4.6695,-4.6676,-4.6662,-4.6653,-4.6624,-4.663,-4.6597,-4.6603,-4.6585,-4.6582,-4.657,-4.6571,-4.6568,-4.6533,-4.6582,-4.6665,-4.6672,-4.6568,-4.6567,-4.6566,0,-4.6789,-4.678,-4.679,-4.6783,-4.6751,-4.6757,-4.6744,-4.6724,-4.6719,-4.6709,-4.6705,-4.6695,-4.6689,-4.6682,-4.6652,-4.6631,-4.6661,-4.6626,-4.6648,-4.6649,-4.6655,-4.6654,-4.6737,-4.6655,-4.6655,-4.6655,-4.6655,0,-4.685,-4.6863,-4.6819,-4.6825,-4.6838,-4.6802,-4.6816,-4.6799,-4.6782,-4.6783,-4.6747,-4.6749,-4.671,-4.6707,-4.6684,-4.6692,-4.669,-4.6677,-4.6671,-4.668,-4.6681,-4.6676,-4.6671,-4.6657,-4.6656,-4.6656,-4.6656,0,-4.6925,-4.6897,-4.6904,-4.6874,-4.6867,-4.6878,-4.6851,-4.6855,-4.6834,-4.6837,-4.6835,-4.6802,-4.6797,-4.6767,-4.6755,-4.6739,-4.6755,-4.6743,-4.6762,-4.6757,-4.678,-4.6777,-4.6861,-4.6869,-4.6783,-4.6784,-4.6785,0,-4.6965,-4.6974,-4.6945,-4.6944,-4.6932,-4.6931,-4.6926,-4.6892,-4.6888,-4.6868,-4.6874,-4.6867,-4.6859,-4.6853,-4.6828,-4.6819,-4.6805,-4.6835,-4.6803,-4.6812,-4.6803,-4.6803,-4.6803,-4.6841,-4.6842,-4.6843,-4.6844,0,-4.7039,-4.7025,-4.7019,-4.7009,-4.7004,-4.6995,-4.6983,-4.6983,-4.6946,-4.6943,-4.6938,-4.6932,-4.6921,-4.6913,-4.69,-4.6886,-4.6858,-4.6854,-4.6858,-4.6867,-4.6877,-4.687,-4.6778,-4.6852,-4.6851,-4.685,-4.685,-4.685,-4.7097,-4.7102,-4.7083,-4.7078,-4.7065,-4.7055,-4.7057,-4.7037,-4.7032,-4.702,-4.7,-4.6998,-4.6979,-4.6958,-4.6947,-4.6944,-4.6928,-4.6934,-4.6936,-4.6937,-4.6942,-4.6879,-4.6941,-4.6941,-4.6941,-4.6941,-4.694,0,-4.7167,-4.7153,-4.7149,-4.7133,-4.713,-4.7105,-4.7091,-4.7089,-4.7087,-4.7072,-4.7065,-4.7059,-4.7052,-4.7027,-4.7017,-4.7019,-4.7006,-4.7018,-4.7016,-4.7013,-4.6957,-4.6954,-4.7028,-4.7028,-4.7028,-4.7028,-4.7028,-4.7028,-4.7204,-4.7211,-4.7195,-4.7196,-4.7181,-4.7179,-4.7173,-4.7163,-4.7151,-4.7146,-4.714,-4.7123,-4.7104,-4.7092,-4.7084,-4.7077,-4.7074,-4.709,-4.7078,-4.7026,-4.7017,-4.7009,-4.7006,-4.709,-4.709,-4.7134,-4.7134,-4.7135]}]]